Theta_e
305 306 306 306 306 306 307 309 311 310 309 310 310 310 310 309 310 311 317 326 329 333 335 336 341 344 344 344 340 339 338 337 336 336 337 337 336 338 340 340 339 339 338 337 336 337 337 337 338 337 337 337 338 337 338 338 337 337 337 338 338 338 338 338 339 338 338 338 338 337 336 335 334 334 333 333 333 333 333 333 333 333 334 334 334 335
305 307 307 306 306 306 306 310 312 310 308 309 310 310 310 309 313 319 328 332 330 335 338 339 344 343 341 339 336 336 337 337 336 335 336 335 335 335 335 336 336 335 334 335 334 334 334 335 335 335 335 336 336 335 336 336 336 336 337 337 337 338 338 338 338 337 337 337 337 336 335 333 333 333 332 332 332 332 332 332 332 332 332 333 333 334
305 306 306 304 305 306 306 309 312 311 310 310 310 310 310 308 312 323 334 335 332 339 341 340 343 342 338 336 334 334 335 335 334 334 335 334 333 333 333 332 332 332 332 333 332 332 333 333 333 333 333 333 333 333 334 335 336 336 336 337 337 337 337 337 337 336 336 335 335 335 333 332 331 331 331 331 331 331 331 331 331 332 332 332 332 332
305 306 306 304 304 306 306 307 310 311 311 311 310 309 310 308 308 322 337 337 334 339 340 339 341 340 337 335 334 333 333 333 332 333 333 332 332 333 333 333 331 331 331 331 331 331 331 332 332 331 331 331 331 332 332 333 335 335 336 335 336 336 335 335 335 335 335 334 334 333 332 331 329 329 329 329 329 329 329 329 329 330 330 330 331 331
307 307 305 303 305 306 307 307 309 310 310 310 310 310 309 310 314 327 338 337 336 337 336 338 342 342 338 335 336 334 332 332 332 332 332 331 331 332 333 333 332 331 331 330 331 330 329 330 330 330 330 330 331 330 330 331 332 332 332 333 333 333 333 333 333 333 333 333 333 332 331 330 329 328 328 328 327 327 327 326 326 327 328 329 329 330
308 307 304 304 305 307 307 307 308 310 310 310 311 309 311 320 329 335 337 334 338 340 337 335 341 346 341 337 338 336 334 333 332 332 332 331 332 332 333 333 332 331 330 329 330 329 328 329 329 329 328 328 328 328 328 329 329 329 329 329 330 330 330 330 330 331 331 331 331 330 330 330 329 328 327 327 326 325 325 324 324 324 325 326 327 328
308 305 305 306 306 306 307 307 308 309 310 310 308 309 321 332 335 336 331 325 331 338 337 331 334 343 343 339 339 337 337 335 332 332 333 332 332 332 332 332 332 330 329 329 328 327 327 328 327 327 327 326 326 325 326 327 327 327 327 327 327 326 326 327 327 328 328 329 329 328 328 328 328 327 325 324 323 323 322 322 322 322 322 323 324 324
308 306 306 307 307 307 307 308 307 308 310 310 307 315 329 333 332 332 325 323 330 336 337 332 329 338 342 339 337 336 338 337 334 333 333 333 332 331 330 330 330 329 328 327 326 326 326 326 325 325 324 324 324 324 325 325 324 325 325 325 325 324 324 324 325 325 325 325 325 325 325 325 324 324 322 321 320 320 320 320 320 319 319 320 320 321
308 308 307 307 307 307 308 309 307 307 310 308 308 318 328 327 328 329 323 326 332 334 338 336 329 334 341 339 336 336 338 339 338 334 333 333 331 330 329 328 328 326 325 325 325 325 324 324 324 323 323 323 323 323 323 323 323 323 323 323 323 322 322 322 322 322 322 322 321 321 321 321 321 320 318 318 317 317 317 317 317 317 317 317 317 318
308 309 308 308 308 308 308 309 307 308 309 307 307 315 320 321 325 323 321 327 326 325 333 337 329 328 337 341 338 337 339 339 338 335 333 333 331 330 329 327 326 325 324 324 324 324 323 323 323 322 322 322 322 322 322 321 321 321 321 321 321 320 320 320 319 319 319 319 318 318 317 316 316 316 315 314 314 314 314 315 314 314 314 314 314 314
308 308 308 309 309 308 308 307 306 308 308 306 308 311 313 316 319 319 321 324 321 319 326 335 332 324 330 340 338 336 338 336 336 335 334 333 331 330 328 327 326 325 324 323 322 323 322 322 322 321 321 320 321 321 321 320 320 320 320 319 319 318 318 318 317 317 317 316 316 315 314 313 313 313 312 312 311 311 312 312 312 312 312 312 312 312
308 308 308 309 309 308 307 307 306 306 306 307 309 310 311 313 315 317 319 319 318 318 319 327 333 325 323 334 336 335 335 333 334 334 333 332 330 329 328 327 326 325 324 322 321 321 321 321 321 321 320 320 320 320 320 319 319 318 318 318 317 316 316 316 315 315 315 314 313 313 312 311 311 310 310 310 310 310 310 310 310 310 310 310 310 310
309 309 308 308 309 308 308 308 306 305 306 308 309 310 311 311 312 314 315 317 317 317 315 320 331 329 323 327 332 333 334 332 332 333 332 331 329 327 327 326 325 324 323 322 321 320 321 321 320 320 320 319 319 319 318 318 317 317 317 317 316 315 314 315 314 314 313 312 312 311 310 309 309 308 308 308 308 308 308 308 309 309 309 309 308 309
309 309 308 308 309 309 308 309 308 307 307 308 310 310 310 311 312 312 313 314 315 317 317 320 329 330 325 326 327 330 331 330 331 331 331 329 327 327 325 324 324 322 322 322 320 320 321 321 320 319 319 319 318 317 317 316 316 316 315 315 315 314 313 313 313 312 311 311 310 309 309 308 307 307 306 306 306 306 306 306 307 307 307 307 307 307
310 310 309 310 310 309 309 309 309 309 308 308 309 310 310 311 311 311 311 312 315 320 323 325 329 329 328 329 326 325 326 327 330 330 330 328 326 325 324 323 323 322 321 321 320 320 320 320 319 318 318 318 318 317 316 315 315 315 315 314 314 313 312 312 311 311 310 309 308 307 307 306 306 306 305 305 304 304 304 305 305 305 305 305 306 306
310 310 309 309 309 309 310 309 308 308 308 307 307 308 310 311 313 313 312 314 317 320 323 327 329 327 328 329 325 326 327 328 330 329 328 328 325 325 324 324 323 322 321 320 319 319 320 319 318 317 317 317 317 316 315 315 314 314 314 314 313 312 311 311 310 309 308 307 307 306 306 305 305 305 304 304 303 302 303 304 304 304 304 304 304 304
309 310 309 308 308 309 309 308 308 309 310 308 307 309 309 310 315 316 312 313 316 315 320 327 330 327 327 328 327 329 331 331 330 329 328 327 325 325 325 324 323 322 321 319 319 319 318 318 317 316 316 316 316 315 314 314 314 314 313 313 312 311 310 309 309 308 307 306 306 306 305 305 305 305 304 303 302 302 303 303 303 303 303 303 303 303
310 311 310 308 308 308 308 308 308 308 309 309 308 309 309 308 313 315 313 314 314 313 320 326 331 330 329 331 331 332 335 334 330 329 328 326 325 325 324 323 322 321 320 319 318 318 317 316 316 316 316 316 316 315 314 313 313 313 312 312 311 310 309 308 308 307 307 306 307 306 306 306 306 305 304 304 303 303 302 302 302 302 302 302 302 301
311 311 309 310 310 308 307 308 309 306 306 309 310 309 309 310 312 312 313 315 315 315 322 327 329 329 329 332 334 335 336 334 331 328 327 326 325 324 323 322 321 320 319 318 318 317 316 315 315 315 315 315 314 314 313 312 312 311 311 311 310 309 308 308 307 307 306 307 307 307 307 306 306 306 305 304 303 303 302 302 301 301 301 301 300 299
313 313 311 310 309 308 307 309 311 308 306 307 309 308 309 311 311 312 313 314 314 316 322 328 329 329 327 329 332 334 333 333 332 329 327 326 324 324 323 322 320 319 319 318 316 315 315 315 315 315 315 314 313 312 311 311 311 310 310 310 309 308 307 307 307 307 306 307 307 306 307 306 306 306 305 304 303 302 302 301 301 301 300 299 298 298
312 313 312 310 307 308 309 310 311 310 308 308 309 309 310 310 310 311 313 312 314 317 319 323 325 325 325 326 329 332 331 330 330 328 327 325 324 323 322 321 320 318 317 316 314 313 314 314 314 315 314 313 312 311 310 310 310 309 309 309 308 307 307 307 306 306 306 306 306 306 305 305 304 304 303 302 302 301 301 300 300 300 299 298 298 297
313 312 313 311 309 310 310 309 309 309 309 309 310 310 310 311 310 310 312 313 315 318 319 318 317 319 324 323 326 330 330 329 328 326 325 324 323 322 321 320 319 317 316 314 313 313 314 314 314 314 313 312 311 310 309 309 309 309 308 308 308 307 307 306 306 306 305 305 305 304 304 303 302 302 301 301 301 300 300 300 299 298 298 298 298 297
317 315 314 312 310 311 309 308 308 309 309 309 310 310 309 312 311 308 311 315 316 317 319 318 314 318 324 322 324 328 329 328 326 325 323 323 322 321 320 319 317 316 314 313 312 313 313 313 314 313 312 311 311 310 309 308 308 308 308 307 307 306 306 305 305 305 304 304 303 302 302 302 301 301 301 301 300 300 300 299 299 298 298 298 298 297
317 315 313 312 311 310 308 308 307 307 308 309 309 310 309 311 313 312 313 316 316 317 319 316 313 321 325 321 324 327 327 326 324 323 322 322 321 320 319 318 316 314 313 312 312 312 312 313 313 312 311 311 310 310 309 308 307 307 307 306 306 305 305 304 304 303 303 302 302 301 301 301 301 300 300 300 300 299 299 299 299 298 298 298 297 297
313 313 313 312 312 312 311 310 309 307 308 310 312 311 309 311 313 314 315 314 315 319 320 314 313 324 326 322 324 327 326 325 324 322 321 321 320 319 317 317 315 313 312 311 311 311 312 313 312 311 311 310 310 310 308 307 306 306 305 305 305 305 304 304 303 302 302 301 301 301 301 301 301 300 300 300 299 299 298 298 298 298 298 297 297 297
312 314 314 313 312 313 314 312 312 311 309 311 313 311 309 311 312 313 315 312 312 318 320 314 314 325 324 322 326 327 325 325 323 321 321 320 319 318 316 315 314 312 312 311 310 311 312 312 311 311 311 310 310 309 307 307 306 305 305 305 305 304 304 303 302 302 301 301 301 301 301 301 301 300 300 299 299 298 298 298 298 297 297 297 297 297
316 314 316 319 316 314 314 314 313 312 311 312 313 312 310 311 313 315 315 313 314 318 320 320 324 331 328 324 326 326 324 324 322 321 321 319 318 317 315 314 313 312 311 310 310 310 310 310 311 311 310 310 309 308 307 306 306 305 305 304 304 303 303 303 302 301 301 301 301 301 301 300 300 299 299 298 298 298 297 297 297 297 297 297 297 297
317 311 314 322 319 314 313 313 313 314 312 311 312 314 312 311 316 317 315 317 321 317 318 326 329 333 332 325 324 326 324 323 322 321 320 319 317 315 314 313 312 311 310 310 309 309 309 309 310 310 310 309 308 307 307 306 306 305 305 304 303 303 302 302 302 302 301 301 301 301 300 299 299 298 298 298 297 297 296 296 296 296 296 296 296 296
317 310 314 316 316 316 315 314 316 319 319 315 312 315 314 312 316 316 316 322 322 315 317 328 329 330 328 325 323 324 323 322 322 320 319 317 316 314 313 313 312 310 310 309 309 309 308 309 309 309 309 308 307 307 306 306 305 305 304 303 303 302 302 302 302 302 302 301 300 300 299 298 298 297 297 296 295 295 295 295 295 295 295 295 295 296
314 313 317 314 315 320 318 317 318 320 321 320 317 318 317 314 315 317 320 324 324 325 327 330 333 332 325 323 324 323 322 322 321 319 318 316 315 314 313 312 311 310 309 308 308 308 308 309 309 309 308 307 307 306 306 306 305 304 304 303 302 302 301 302 301 301 301 301 300 300 299 297 296 296 295 294 294 294 293 293 294 294 295 295 295 295
310 313 318 314 313 319 319 319 319 318 320 323 322 321 319 315 316 322 325 321 322 330 328 325 334 334 323 320 323 322 321 321 319 318 317 315 314 314 313 312 311 310 309 308 308 307 308 308 309 308 307 307 306 306 305 305 304 303 303 302 301 301 301 301 301 301 301 300 300 299 298 296 295 295 294 294 293 293 292 293 293 293 294 294 294 294
311 314 317 314 311 317 320 321 321 320 320 321 323 323 321 317 316 321 323 319 321 330 326 322 330 330 321 320 323 321 320 320 319 319 317 315 314 314 313 312 311 309 308 308 307 306 307 308 308 307 307 306 306 305 305 304 303 302 301 300 300 300 300 301 300 300 300 300 299 298 296 295 295 294 293 293 292 292 292 292 292 292 292 293 293 293
316 317 318 314 309 316 320 320 321 321 318 317 320 322 322 322 322 322 321 319 322 327 326 324 326 325 322 321 321 321 321 321 320 319 317 315 313 313 313 312 310 308 308 307 306 306 306 308 308 307 306 305 305 305 304 303 301 300 299 299 299 300 300 300 300 300 300 299 298 296 295 294 294 293 293 292 292 292 292 292 292 292 292 292 293 293
320 319 318 314 311 318 321 319 318 319 317 317 318 316 318 321 324 325 325 322 321 321 321 322 323 322 321 320 321 321 321 320 320 318 316 315 313 313 312 311 309 308 307 307 306 306 307 307 307 306 305 305 304 303 302 301 299 298 297 298 299 299 299 299 300 299 298 297 296 295 294 294 293 293 292 292 292 292 292 292 292 292 292 293 293 294
319 319 318 315 315 319 320 318 317 318 318 318 315 312 314 315 317 322 324 322 319 319 320 321 320 320 321 321 321 321 320 320 319 317 315 314 313 313 312 310 309 308 307 306 306 307 307 306 306 305 304 304 303 301 300 298 297 297 297 298 299 299 299 298 298 297 296 295 295 294 294 294 293 293 292 292 292 292 292 292 292 293 293 294 294 294
318 318 317 316 316 319 319 317 317 319 317 316 314 312 312 314 315 318 322 323 318 317 320 322 320 320 320 320 319 319 319 318 317 316 315 313 312 313 311 310 308 307 307 307 307 307 306 306 305 304 303 303 302 300 298 297 296 297 298 298 298 298 297 297 296 296 295 295 295 294 294 294 293 293 292 292 292 292 292 292 293 293 294 294 294 294
317 318 318 318 315 317 320 317 317 319 319 320 323 319 316 319 320 319 320 323 319 314 316 320 319 319 319 319 318 318 317 317 317 316 315 313 313 313 311 310 308 307 308 308 307 306 306 305 304 303 303 302 301 299 298 296 296 297 297 297 297 296 296 296 296 296 296 295 295 294 294 294 293 293 293 293 292 292 292 292 293 293 293 294 294 294
317 318 319 319 315 314 318 319 319 319 319 322 327 321 315 317 319 319 319 322 319 314 315 318 319 319 319 318 317 317 317 318 318 317 314 313 313 312 311 309 308 307 307 307 306 305 305 304 303 302 302 302 300 298 297 296 295 296 296 296 296 296 296 296 296 296 296 295 295 294 294 294 294 293 293 293 292 292 292 292 292 292 292 293 293 293
318 318 317 318 316 314 318 320 319 319 319 323 324 318 314 315 317 319 319 320 321 315 314 318 319 318 319 318 317 317 318 319 319 317 314 313 312 310 309 308 307 307 306 306 305 305 304 303 303 302 302 301 300 298 297 296 296 296 296 296 296 296 297 296 296 296 296 295 294 294 294 294 294 294 293 293 292 292 292 292 292 292 292 292 293 293
320 318 316 317 317 317 318 318 317 317 319 321 318 314 314 314 315 319 320 319 320 315 314 318 319 318 318 317 316 317 319 320 320 317 313 312 310 308 307 306 306 306 305 305 304 304 303 303 302 302 302 301 299 298 297 297 296 296 297 296 296 297 297 296 296 296 295 295 294 294 294 294 294 293 293 293 292 291 291 291 291 291 292 292 293 293
320 317 314 315 317 317 318 318 317 316 318 318 315 314 314 314 316 319 319 318 317 315 315 317 318 318 317 317 317 318 318 317 317 315 312 310 308 307 306 306 305 305 305 305 304 303 303 302 302 302 302 301 299 298 297 297 297 297 296 296 297 297 297 296 296 295 295 295 295 294 294 294 294 293 293 292 292 291 291 291 291 291 291 292 292 292
318 316 314 315 316 315 315 316 316 315 316 315 314 313 314 317 319 320 319 315 313 314 315 316 317 317 316 317 317 316 314 314 314 312 310 308 307 306 306 305 304 305 304 304 303 303 303 302 302 302 301 300 299 298 298 298 297 297 296 297 297 297 296 296 295 295 295 295 295 295 294 294 294 293 293 293 292 292 292 291 291 291 291 291 292 292
319 316 315 314 314 313 314 315 316 316 315 315 316 316 316 318 318 317 316 314 312 313 315 316 316 316 316 316 315 313 311 311 312 310 308 307 306 306 305 305 304 304 304 303 303 303 303 302 302 301 300 299 299 298 298 298 298 297 297 297 297 296 296 296 296 295 295 295 295 295 294 294 294 294 293 293 292 292 292 292 292 291 291 291 292 293
319 316 316 316 315 315 316 317 316 315 314 315 318 318 317 315 312 312 316 316 313 313 315 316 316 316 315 313 311 310 311 311 310 310 308 307 306 305 305 304 304 304 304 304 303 303 302 302 302 301 300 299 299 299 298 298 298 298 297 298 297 296 296 296 296 296 295 295 295 295 294 294 294 294 294 293 293 293 292 292 292 292 291 292 293 294
317 314 315 317 317 316 316 315 314 311 310 311 312 312 312 311 308 309 314 315 313 314 315 315 315 315 312 310 310 310 310 310 310 309 308 306 305 305 304 304 304 304 304 303 303 303 302 302 301 300 299 299 299 299 299 298 298 298 298 298 297 296 296 296 296 296 296 295 295 295 295 294 294 294 294 293 293 293 293 293 293 293 293 293 293 294
313 310 312 316 316 315 314 313 311 310 311 311 310 308 308 308 308 309 313 314 313 313 314 314 313 311 309 309 309 309 309 309 309 308 307 306 305 305 304 304 304 304 303 303 302 302 302 301 301 300 299 299 299 299 299 298 298 298 298 298 297 297 296 296 296 296 296 296 295 295 295 295 294 294 294 294 294 294 294 293 294 294 294 294 294 294
312 310 313 316 315 316 316 314 311 311 312 311 310 309 308 308 308 309 311 313 313 312 312 312 310 308 308 309 309 309 308 308 308 307 306 305 304 304 304 304 303 303 303 303 302 302 301 301 300 299 299 299 298 299 299 298 298 298 298 298 298 297 297 296 296 296 296 296 296 296 295 295 295 294 294 294 294 294 294 294 294 294 294 294 295 295
313 312 314 315 314 315 316 313 310 309 309 307 308 310 310 309 308 308 309 310 310 310 310 309 308 308 308 309 309 308 308 307 307 306 305 305 304 304 305 304 303 303 303 302 302 301 301 300 300 299 299 299 299 299 299 299 299 299 298 298 298 298 298 297 297 296 296 296 296 296 296 296 295 295 295 294 294 295 294 294 294 294 295 294 294 294
311 313 314 314 315 316 315 312 310 311 312 310 308 308 308 308 308 308 308 308 308 308 307 307 307 308 308 308 308 308 307 307 306 305 305 304 304 304 305 304 303 303 302 301 301 300 300 300 300 300 300 299 299 299 299 299 299 299 299 298 298 298 298 298 297 297 297 297 297 297 297 297 296 296 295 295 295 295 295 295 294 294 294 294 293 294
312 314 313 313 316 317 316 315 314 315 317 315 311 309 308 306 307 308 307 307 308 307 307 307 307 307 308 308 308 307 307 306 305 305 304 304 304 304 304 303 303 302 301 301 300 300 300 300 300 300 299 299 299 299 299 299 299 299 299 299 298 298 298 298 298 298 297 297 297 297 297 297 297 297 296 296 296 295 295 295 294 294 294 294 294 293
313 314 314 315 317 316 314 313 312 314 316 314 310 308 307 305 307 308 308 307 307 306 306 307 306 306 306 307 308 307 306 305 305 305 304 303 303 303 303 303 302 302 301 301 300 300 300 300 300 300 299 299 299 299 299 300 300 299 299 299 299 299 298 298 298 298 298 298 298 298 298 297 297 297 297 297 296 296 296 296 295 295 294 294 294 294
Wind_Speed
3 5 7 7 8 9 7 7 4 3 3 4 4 3 2 3 3 2 2 3 1 4 5 4 11 11 9 10 9 7 8 9 9 7 8 6 3 2 5 7 8 7 7 10 12 11 12 14 15 15 13 14 13 11 12 11 10 9 10 11 11 11 9 9 9 9 10 9 8 7 7 8 8 8 8 9 9 8 7 6 5 5 4 4 3 3
3 7 7 5 8 9 7 7 6 4 3 3 4 4 2 3 5 3 3 3 2 3 5 9 12 9 7 9 8 7 8 9 8 7 9 9 7 5 4 6 6 5 6 10 11 9 11 15 15 14 13 14 12 11 12 12 12 12 12 12 12 12 11 11 11 11 11 11 9 9 9 9 9 9 9 10 9 8 8 8 7 6 6 5 4 4
5 6 5 5 7 9 6 6 7 5 3 2 2 4 3 3 5 4 4 4 3 4 7 11 11 8 8 9 9 9 8 8 7 6 8 12 11 7 6 6 6 7 7 7 7 8 12 14 14 14 13 13 13 13 15 15 16 15 14 14 13 12 12 11 11 11 12 12 11 11 10 11 13 12 12 12 10 10 11 10 10 9 8 7 6 6
6 5 6 7 9 10 6 5 7 5 2 2 2 3 3 2 3 3 5 5 4 5 11 13 10 7 7 8 8 8 7 9 9 8 9 10 10 10 8 3 2 5 5 4 5 8 10 12 12 13 13 14 16 17 18 19 18 16 15 14 14 13 13 12 12 12 12 12 12 12 13 14 15 15 15 14 13 12 12 12 12 11 10 8 8 7
3 4 9 9 10 13 8 6 8 6 4 2 2 2 3 2 2 5 9 11 10 9 13 13 8 4 4 4 4 6 8 10 9 11 11 9 7 9 10 6 5 7 7 4 5 6 7 11 12 12 15 17 19 18 19 20 19 18 17 16 15 14 15 14 12 12 12 12 12 13 13 12 13 12 11 11 11 10 10 11 12 12 11 10 9 8
2 4 10 11 9 11 10 7 8 9 6 2 3 3 3 4 7 10 11 10 8 7 9 7 4 3 3 6 6 5 7 9 8 10 11 10 9 8 8 8 6 7 7 5 7 6 7 11 13 13 17 19 19 18 18 19 19 19 18 17 16 15 15 15 14 13 12 12 12 11 11 9 9 9 8 8 8 8 8 9 11 12 11 10 10 9
2 4 9 12 10 10 10 8 8 8 6 3 4 5 4 5 10 11 9 5 3 5 6 2 0 4 4 5 7 6 8 9 8 9 10 10 9 6 6 7 8 9 7 7 9 8 8 12 13 13 14 16 18 18 18 18 17 17 17 16 16 16 15 14 14 13 12 12 11 9 10 9 9 9 8 8 8 9 8 8 10 11 11 10 10 9
5 8 8 10 11 10 9 8 7 8 7 3 4 8 7 6 8 9 5 3 3 5 5 2 2 4 5 6 8 9 9 10 10 10 9 9 9 8 7 8 9 10 9 8 7 7 9 12 12 13 14 16 18 18 17 17 16 16 16 15 15 15 15 14 13 13 13 13 12 10 11 11 10 9 9 8 9 10 9 8 9 10 10 10 10 10
5 10 10 11 10 8 6 6 7 8 5 3 5 7 6 5 5 5 4 5 5 5 5 4 2 3 5 6 9 11 11 11 12 13 10 9 10 9 9 10 10 10 10 9 8 8 9 11 13 15 17 18 19 17 16 16 17 17 16 16 16 15 15 15 14 14 15 14 14 13 13 12 10 9 9 9 8 8 7 8 8 9 10 10 10 11
3 9 11 12 9 7 6 6 10 10 3 4 7 7 6 5 5 4 2 4 4 3 5 8 6 2 4 6 8 10 11 12 12 12 11 9 10 10 9 10 10 10 9 9 10 10 9 9 13 17 17 18 18 17 16 17 16 17 17 16 17 17 17 16 15 15 15 15 15 15 15 14 13 11 11 11 11 9 9 9 8 8 8 9 9 11
2 4 6 7 5 5 7 6 8 7 5 9 9 8 7 5 4 3 2 3 3 2 5 12 11 4 4 6 9 9 8 12 14 12 12 12 11 11 10 10 11 11 10 10 10 11 11 10 11 14 16 17 17 16 16 16 16 16 17 17 18 18 17 16 15 15 16 16 16 16 15 15 15 14 13 13 14 13 12 11 9 9 9 9 9 9
4 6 4 3 3 5 7 5 2 1 6 9 6 6 6 3 2 2 2 1 3 2 2 7 10 5 4 5 9 11 7 11 17 16 16 16 14 12 11 11 11 10 11 12 11 11 11 11 9 10 13 14 16 16 15 16 16 16 17 17 18 19 18 17 16 16 17 17 17 17 16 16 16 15 15 15 14 12 12 11 9 10 10 10 10 9
4 4 2 1 4 8 9 7 3 1 4 5 5 8 6 4 3 3 3 2 3 2 2 2 7 4 3 1 5 13 10 10 17 17 17 18 16 14 13 12 11 10 11 12 10 9 10 10 9 8 9 10 12 15 15 16 17 17 17 17 18 19 17 16 16 16 17 17 17 17 16 17 16 16 17 16 14 12 11 11 10 11 11 11 11 11
3 1 2 4 4 7 11 10 6 5 7 7 7 9 7 5 5 5 3 1 2 2 3 2 7 4 2 1 1 8 7 6 13 16 16 17 16 15 14 13 13 12 12 11 10 8 8 10 10 9 9 9 11 14 16 17 17 17 17 17 18 18 16 15 16 16 16 17 17 16 16 17 17 18 19 19 18 15 13 12 11 11 11 11 11 12
7 2 6 8 4 6 12 8 5 7 6 4 2 4 5 4 3 3 3 3 3 3 3 4 6 3 3 1 2 5 4 4 10 15 16 16 15 14 14 14 15 14 13 12 10 10 9 10 11 10 9 10 12 14 16 17 18 18 17 17 17 17 15 15 15 16 16 17 16 17 17 18 19 20 20 20 20 20 16 13 13 13 12 11 11 12
5 2 4 5 2 10 12 3 4 9 6 2 1 2 3 3 3 2 1 1 2 3 2 3 3 1 1 1 3 3 4 6 12 16 17 17 15 15 14 14 14 13 12 12 10 10 11 11 11 11 11 12 13 14 15 16 18 17 17 16 16 16 15 15 15 16 17 17 18 19 20 21 21 21 21 21 21 21 18 14 14 14 13 12 12 13
4 3 3 2 2 10 11 8 6 7 6 3 3 4 2 2 4 3 1 2 1 3 3 2 2 1 1 2 2 5 9 12 15 17 18 18 18 17 14 13 13 12 12 11 8 10 12 12 11 11 13 13 13 14 16 17 17 16 16 16 16 16 16 15 16 16 17 18 19 20 20 21 21 20 20 20 20 20 18 15 15 14 13 13 12 13
3 4 2 3 7 6 4 9 8 3 3 5 5 5 4 2 1 1 2 2 2 5 2 2 4 4 3 3 5 9 13 16 17 18 18 18 18 16 14 13 14 13 12 11 10 11 12 12 11 12 13 14 15 16 18 18 17 16 15 15 16 16 15 16 16 16 17 18 18 18 17 18 17 17 17 17 17 18 17 17 16 15 14 13 13 16
2 4 2 5 9 6 2 7 7 1 1 2 5 7 4 3 3 2 2 3 4 4 2 2 4 4 4 5 9 14 17 17 18 18 17 18 18 16 14 15 15 14 13 13 12 10 11 12 12 14 14 15 17 19 19 19 17 16 16 16 16 16 15 15 16 16 17 16 14 14 14 14 14 14 15 15 16 17 17 17 16 16 16 15 17 21
1 2 4 3 3 6 5 7 8 6 1 2 4 7 1 1 2 3 2 2 3 4 2 3 4 4 5 7 14 20 20 19 19 17 17 18 17 15 15 15 15 15 14 13 11 9 11 13 13 14 15 15 17 19 19 19 18 17 17 16 16 16 16 15 15 16 16 15 14 13 13 13 13 14 14 15 16 17 17 17 16 17 18 20 22 24
0 1 4 3 1 4 6 6 8 9 7 5 6 7 4 1 0 2 2 1 1 3 3 2 3 3 2 4 11 18 20 19 18 17 16 16 16 15 15 16 16 15 14 11 9 9 11 13 14 15 16 17 18 19 20 20 19 18 17 16 16 15 15 15 15 15 15 15 14 15 15 15 15 15 16 17 17 18 19 19 19 19 21 23 24 24
1 1 3 4 4 6 5 3 6 10 11 9 8 7 7 5 3 5 5 2 1 1 2 2 3 2 1 2 5 14 18 18 18 16 14 14 16 15 15 16 16 14 12 11 10 10 11 13 15 16 16 17 17 18 19 19 19 18 17 16 15 15 15 15 15 15 15 16 16 16 17 17 17 17 17 18 18 19 19 20 21 22 22 22 22 23
1 2 3 4 4 4 2 2 2 10 10 7 6 7 6 4 5 7 6 3 3 1 2 1 2 1 2 4 4 11 14 15 16 16 14 13 14 15 15 13 12 11 11 11 11 11 12 13 16 16 16 16 16 16 18 19 19 18 17 16 15 15 15 15 16 16 16 17 17 17 17 17 17 18 18 19 19 19 19 19 20 21 21 20 21 23
2 1 3 3 2 1 0 2 1 5 8 6 5 6 7 5 3 2 1 3 5 4 3 2 3 2 2 4 4 11 12 12 12 14 15 14 12 14 14 11 10 10 10 10 11 11 13 15 16 16 16 16 15 15 18 19 18 18 17 15 15 15 15 16 16 17 18 18 18 18 17 17 18 18 19 18 19 19 19 18 19 20 20 20 21 22
2 1 3 5 5 4 4 3 2 4 6 5 3 4 7 7 5 3 2 2 4 4 5 5 5 2 3 1 6 13 13 12 12 12 14 14 13 13 12 9 9 10 10 10 11 11 13 15 15 15 16 16 15 15 17 17 16 18 17 15 15 15 15 16 17 18 18 19 18 18 17 17 17 18 18 18 18 18 18 18 18 18 19 20 20 21
2 2 3 4 7 7 6 5 4 4 4 2 2 5 7 9 9 5 2 4 4 2 5 6 4 3 2 3 11 15 15 16 15 13 12 13 14 12 10 10 10 10 11 13 12 12 13 13 14 16 16 16 16 16 17 16 16 18 17 15 15 15 16 17 18 18 19 18 17 17 16 16 16 16 16 16 16 17 17 17 17 17 17 18 19 19
1 1 2 3 4 4 3 2 1 3 6 5 4 7 8 9 10 7 4 4 4 4 4 4 2 3 4 8 13 16 16 17 17 16 16 16 15 12 10 11 11 10 11 13 12 12 12 12 14 16 16 15 16 16 17 17 17 18 17 16 15 15 16 17 17 18 18 17 16 16 15 15 15 15 15 15 15 15 15 15 15 15 16 17 18 18
2 2 2 2 2 1 2 2 1 2 7 8 8 9 10 9 10 9 7 5 6 5 5 4 3 4 8 13 17 18 18 17 17 19 18 16 14 12 11 12 13 12 12 13 12 13 13 12 14 16 16 16 16 16 16 16 17 17 16 16 15 16 17 17 16 17 16 16 16 15 15 15 14 14 14 14 14 13 13 14 14 15 16 17 17 18
2 3 3 3 2 2 1 1 1 1 2 4 5 8 11 11 12 13 10 7 9 7 4 6 10 8 7 13 20 20 19 18 17 17 16 14 13 14 14 15 15 14 14 14 13 13 13 13 14 16 17 17 17 17 17 17 17 17 17 16 15 16 17 16 16 16 16 16 16 15 14 14 14 14 13 13 13 13 13 14 14 14 15 16 17 18
2 3 3 4 3 3 2 1 2 3 2 2 3 3 6 10 12 12 7 4 6 2 1 7 13 9 3 9 17 17 15 15 15 14 14 15 15 16 16 16 16 16 15 15 13 13 13 15 17 18 18 18 18 18 17 16 17 17 17 16 16 16 16 16 16 16 16 17 16 15 14 13 13 13 13 13 13 14 14 15 15 15 15 16 17 18
2 3 3 4 4 1 2 2 1 2 3 3 2 0 2 4 5 4 2 3 4 2 2 6 9 5 1 6 13 15 14 14 14 14 15 15 16 17 17 17 17 16 15 15 14 13 13 16 18 19 19 19 19 19 18 17 17 18 18 16 16 16 16 16 17 17 17 17 16 14 13 13 13 13 13 13 14 14 15 16 16 16 16 16 17 18
1 2 2 3 5 2 1 1 2 3 2 2 3 2 4 5 3 1 2 4 5 6 7 7 5 4 4 9 14 16 16 17 18 18 17 14 15 18 18 17 17 16 16 16 15 13 13 16 18 19 19 19 19 19 20 20 19 19 18 17 17 18 18 18 18 18 18 17 16 14 13 13 13 14 14 15 15 16 17 17 18 18 17 18 17 18
3 4 2 3 5 2 1 0 2 3 3 3 3 4 5 4 2 2 1 3 5 8 9 6 4 3 8 13 16 18 20 21 20 20 18 16 16 18 17 17 17 17 16 16 15 15 15 17 19 20 20 20 20 21 23 23 22 19 18 19 19 20 20 20 20 19 18 17 16 15 15 15 15 16 16 17 17 17 18 18 19 19 19 19 19 19
4 5 3 2 3 3 1 1 1 4 5 2 1 1 3 3 4 5 2 3 5 5 2 0 3 9 14 16 18 21 23 22 20 18 17 16 15 15 16 17 17 17 17 16 15 16 17 18 19 21 21 21 22 24 25 25 23 22 21 21 21 22 22 21 21 20 19 17 17 16 16 16 17 17 18 18 18 18 19 19 19 19 19 20 20 21
6 4 3 1 1 2 2 2 4 5 3 1 2 1 2 1 3 2 2 4 6 5 2 2 6 11 15 15 15 17 17 15 15 16 16 16 16 16 17 17 17 18 17 16 15 17 19 20 20 20 21 22 25 27 27 26 24 23 22 22 23 22 22 21 21 20 20 19 18 18 18 18 18 19 19 19 20 20 20 19 19 19 19 20 21 21
7 5 3 1 1 2 3 4 4 2 1 2 1 1 3 3 3 3 3 6 9 9 6 6 7 9 10 10 10 11 11 11 12 12 14 17 17 17 17 17 17 18 18 18 19 20 22 23 24 24 24 26 29 29 27 27 26 24 23 22 23 22 22 22 21 21 20 19 18 19 19 19 19 20 20 20 20 20 19 18 18 18 18 19 19 20
5 6 4 2 0 1 3 4 2 2 1 2 2 3 5 5 5 5 3 4 8 9 7 6 8 9 11 11 11 11 11 11 9 9 12 17 17 17 18 18 20 21 21 21 23 23 24 26 28 29 30 30 30 30 29 29 27 25 24 23 24 24 24 23 21 20 20 19 19 19 19 19 19 20 19 18 19 19 18 17 18 18 18 18 17 18
2 3 5 4 2 0 2 3 2 3 4 4 3 4 4 3 4 4 1 2 5 9 8 8 11 13 14 15 15 15 13 11 9 9 13 17 16 14 14 16 19 21 22 22 22 22 24 27 30 34 34 32 31 32 32 30 29 28 26 25 25 25 23 21 20 20 19 18 19 19 18 18 18 18 18 18 18 18 18 18 18 18 19 18 17 16
4 2 1 3 3 2 3 4 4 4 3 2 3 4 4 3 3 3 2 3 6 11 11 11 14 15 17 19 19 17 13 9 9 11 13 16 14 11 13 16 19 20 22 25 26 25 26 30 33 34 33 32 32 34 34 32 31 29 26 25 25 23 20 20 20 19 19 19 19 18 18 17 17 17 17 17 18 18 19 20 19 19 19 18 17 15
4 2 0 3 3 3 4 3 2 3 2 1 1 4 5 4 3 4 4 2 5 12 14 14 16 17 17 18 18 17 13 8 8 10 15 17 14 13 16 19 21 22 22 23 25 27 29 32 33 31 30 31 34 36 35 33 31 28 26 25 24 21 20 21 21 20 20 19 18 18 17 17 17 17 17 17 18 19 19 19 19 20 20 18 16 14
3 2 0 2 3 3 5 3 1 2 2 0 2 5 6 4 3 5 4 1 4 11 12 12 15 17 17 18 16 12 7 2 5 13 19 19 17 16 19 22 24 27 27 26 29 32 31 31 31 29 30 35 38 37 35 33 30 28 27 26 23 21 22 23 22 21 20 18 17 17 16 16 16 16 17 17 18 18 18 18 19 20 19 17 16 16
3 2 1 2 3 2 2 2 1 2 1 3 4 3 3 4 3 3 1 2 3 10 10 9 12 14 15 16 10 3 3 7 11 16 19 19 18 18 20 22 22 23 25 27 32 34 30 27 28 28 31 37 40 38 36 34 30 29 28 25 23 23 25 24 23 21 19 18 17 17 16 15 15 16 16 16 17 16 17 17 18 19 18 17 17 17
4 4 3 3 3 2 1 2 2 1 3 9 10 4 2 3 1 1 1 1 2 9 11 10 11 13 14 11 5 5 8 11 14 17 18 18 19 19 22 24 23 23 25 26 29 30 29 28 27 27 31 37 39 38 36 34 31 30 28 25 24 26 26 24 22 21 19 18 18 16 16 15 14 14 15 14 15 16 15 16 16 17 17 17 15 14
1 2 2 3 3 3 3 4 2 0 3 7 7 3 2 1 1 1 2 1 2 7 9 8 10 12 13 9 8 9 12 13 15 18 17 17 18 19 21 24 25 26 28 27 27 29 30 28 25 27 33 38 39 38 36 34 33 31 28 26 26 27 26 24 22 21 19 19 18 16 15 14 13 13 13 12 13 14 14 14 14 14 16 15 13 11
0 0 0 2 2 2 2 2 0 1 2 4 0 2 2 2 1 2 2 2 4 7 7 8 9 10 10 11 11 11 12 13 16 17 16 17 17 18 20 23 26 28 27 27 29 31 31 29 30 32 35 37 38 38 36 35 34 32 29 27 28 27 25 24 23 21 20 19 18 16 15 14 13 12 11 11 11 10 10 11 11 11 12 12 11 10
1 1 0 0 1 1 2 1 1 2 2 2 1 1 2 2 1 1 2 2 4 6 7 7 9 10 11 12 12 11 12 15 17 16 16 17 17 18 20 22 25 27 27 26 29 32 32 33 35 36 35 35 36 37 36 35 34 32 30 29 28 27 25 24 23 21 20 19 18 16 15 14 13 11 10 9 9 8 8 9 9 8 8 9 8 9
1 2 0 1 1 3 2 0 1 2 2 2 2 2 1 1 1 1 2 2 4 6 6 6 8 10 11 12 13 13 14 16 17 15 15 16 17 18 21 22 23 26 28 29 31 33 35 36 37 36 35 34 34 35 35 34 33 31 30 30 29 27 25 24 23 22 21 19 18 16 15 14 13 12 10 9 8 7 6 7 7 6 6 6 6 7
1 3 1 1 2 2 1 1 2 3 3 3 3 2 1 0 1 1 0 2 5 6 6 8 10 11 10 10 13 15 16 16 17 16 15 14 15 18 21 24 26 27 27 29 32 34 36 36 34 32 32 32 34 35 36 34 32 31 30 29 29 28 26 25 24 22 21 20 18 17 15 14 13 12 10 9 7 6 5 4 4 4 4 4 5 6
1 2 1 1 1 2 3 2 1 3 4 4 5 4 2 1 1 2 3 4 7 8 9 9 9 9 11 12 14 16 17 16 16 18 17 15 15 17 21 25 27 26 27 29 32 34 35 35 34 33 34 35 35 35 35 35 33 30 29 29 28 28 27 26 24 23 22 21 19 18 16 14 13 12 11 9 7 6 4 3 2 2 2 3 5 5
2 3 2 2 2 1 2 2 3 1 2 3 5 5 5 3 4 5 5 6 8 9 11 11 9 8 10 13 15 16 16 15 16 17 16 12 12 16 22 26 27 28 30 31 30 30 32 34 35 35 35 36 36 35 35 35 33 30 29 28 27 27 27 26 25 24 23 22 21 19 17 16 15 14 12 10 8 7 5 3 2 1 0 1 2 3
2 2 3 3 2 0 1 2 3 1 2 1 2 4 5 5 5 6 7 7 8 9 11 13 13 11 11 12 15 17 17 15 16 16 13 11 11 14 18 23 26 29 31 30 27 26 27 30 33 34 33 34 35 35 34 34 33 31 29 28 26 26 26 26 26 24 23 23 22 19 17 17 16 15 14 12 10 8 7 5 4 2 2 1 1 2
Wind_Direction
164 166 183 190 180 170 168 179 168 118 141 147 144 152 154 137 98 82 63 350 288 99 71 115 131 130 130 119 103 97 105 119 129 104 83 84 63 88 126 117 109 101 91 87 88 95 103 106 109 109 110 111 111 115 116 115 119 115 106 104 101 100 98 92 88 86 90 93 91 88 82 77 70 68 69 67 70 72 71 72 71 68 61 53 47 41
192 189 190 175 157 154 156 160 133 113 134 136 145 153 167 136 94 76 14 21 168 114 94 129 124 103 96 96 80 79 99 120 127 92 83 97 82 42 40 51 59 56 59 76 76 79 92 93 97 100 101 104 101 101 108 108 110 108 100 98 98 99 97 91 87 86 86 88 87 89 87 84 79 74 75 73 70 71 70 67 69 70 63 59 60 52
192 199 176 149 148 141 135 156 146 135 148 128 142 152 164 146 112 92 28 47 109 101 125 137 115 85 77 78 70 68 83 102 110 98 107 118 108 84 53 30 34 39 31 51 74 83 91 93 94 96 97 100 99 98 103 107 108 105 98 96 96 94 94 89 87 87 88 91 93 96 96 93 88 84 84 83 78 75 73 67 68 69 63 58 55 48
184 194 162 146 147 139 133 170 156 146 165 141 151 164 162 154 129 102 63 73 82 103 139 131 103 82 77 73 64 67 89 100 104 109 104 105 107 107 103 88 102 97 66 38 60 68 83 96 95 94 97 101 104 104 104 106 106 104 102 100 97 93 92 91 90 92 96 99 101 100 100 100 95 91 89 86 81 77 73 70 71 71 68 64 60 55
144 138 145 145 154 151 150 173 167 174 195 184 192 175 144 117 87 102 106 100 85 102 134 123 102 79 83 120 105 81 105 111 115 121 111 106 113 122 129 152 178 125 113 116 89 74 84 96 96 99 105 106 104 102 101 103 104 104 103 101 101 99 96 96 96 99 101 101 104 104 104 103 98 89 81 77 74 71 69 70 75 77 77 74 73 73
116 120 144 145 157 156 152 171 180 183 186 198 208 189 162 133 112 122 134 122 96 118 148 131 118 127 114 152 153 118 117 123 135 135 128 131 134 137 138 151 150 110 111 128 110 107 108 105 103 101 105 106 103 100 101 104 104 104 103 101 101 98 96 97 98 100 102 101 104 107 104 98 91 78 68 68 71 72 70 72 77 78 76 73 73 73
118 150 159 151 155 154 156 176 188 183 176 191 194 166 150 131 126 142 158 150 116 137 162 209 252 143 154 171 165 146 129 135 154 153 147 144 138 138 135 140 141 124 124 123 105 104 105 103 102 97 98 101 101 103 106 105 103 101 100 98 96 94 93 93 94 95 96 96 95 95 91 85 85 87 83 82 84 83 80 79 77 71 67 65 63 62
129 152 170 155 153 159 167 174 183 187 177 167 171 153 146 147 146 156 153 122 115 116 134 253 301 137 170 182 173 167 148 147 168 172 166 158 149 142 130 129 131 128 127 115 102 101 101 102 101 99 100 102 104 107 107 104 103 100 98 96 94 93 91 89 90 90 88 89 90 89 88 83 84 92 95 94 90 87 83 76 71 64 60 56 54 55
132 161 172 159 158 171 173 153 157 180 180 152 160 147 139 144 141 145 120 101 124 136 151 212 243 151 167 171 169 178 173 167 174 178 178 170 162 150 130 128 129 129 128 117 113 113 104 104 107 108 108 108 110 108 106 104 102 100 97 96 95 93 91 87 85 85 84 86 89 90 91 88 86 87 89 88 82 79 74 65 60 56 52 49 50 53
162 176 171 164 169 173 159 143 162 179 182 134 141 115 84 79 82 95 105 105 131 175 171 187 210 183 159 171 174 185 194 190 179 177 176 168 170 164 139 135 135 131 128 117 115 112 101 103 113 116 112 108 109 109 108 107 103 101 97 94 92 90 87 84 80 79 78 78 80 81 83 84 83 82 79 73 68 64 62 58 51 47 45 43 46 50
105 147 161 173 176 155 144 148 170 176 143 134 134 113 91 74 72 74 54 87 163 216 172 182 200 211 186 187 188 195 204 192 180 174 169 160 164 168 152 146 144 137 135 128 117 109 102 105 114 115 112 110 114 115 114 110 104 100 97 93 91 87 83 79 75 73 72 72 72 73 74 74 74 73 69 66 63 59 58 55 49 48 47 45 45 45
96 131 160 188 156 133 131 140 149 122 143 146 137 133 126 98 96 104 73 114 210 201 134 182 192 207 216 195 199 209 206 186 184 177 167 161 158 160 155 151 149 143 139 132 124 117 112 115 115 108 108 114 118 117 114 111 107 101 97 94 90 86 81 77 73 70 71 71 70 70 69 69 67 65 65 66 62 56 54 53 51 51 51 49 48 45
114 147 171 160 165 158 145 144 145 137 177 177 150 154 158 145 161 181 170 191 212 164 49 182 178 194 238 180 205 208 198 194 195 185 170 161 156 156 155 151 146 141 139 134 130 128 122 125 122 108 108 112 114 114 114 112 108 103 99 94 89 85 80 76 72 70 70 71 70 69 67 67 66 65 68 69 66 61 58 56 55 53 53 51 48 48
148 187 192 157 164 176 167 166 172 172 188 188 166 169 176 164 170 184 169 152 201 150 54 148 173 195 225 84 220 208 205 209 192 184 175 163 155 155 153 150 148 145 145 143 137 127 123 128 126 119 118 114 111 113 115 114 108 103 98 92 88 85 79 76 73 70 70 70 68 66 66 67 70 72 74 75 73 71 68 63 62 58 55 55 51 48
169 177 180 167 151 178 181 181 153 139 165 183 154 171 181 173 178 179 170 170 166 128 77 136 175 201 170 130 280 237 264 255 179 172 172 161 154 155 153 152 152 151 151 147 137 126 125 129 125 124 125 117 112 114 115 113 109 104 98 92 89 87 82 78 75 74 72 71 68 67 70 73 75 77 76 75 74 73 70 66 64 62 58 59 57 54
162 129 167 163 141 173 176 161 105 132 155 176 80 171 194 185 152 111 116 137 123 125 131 164 192 257 150 331 297 228 205 193 167 161 163 158 156 159 158 157 155 153 153 147 137 127 127 129 127 130 128 119 116 116 114 112 109 105 100 95 92 91 88 83 79 79 77 76 76 75 76 78 77 76 74 72 71 69 68 64 62 61 59 61 63 59
147 120 152 124 158 184 170 150 166 174 159 143 183 191 172 103 112 116 112 57 86 191 175 157 149 126 209 228 213 170 162 167 166 165 165 160 159 162 160 158 156 154 152 145 136 130 129 132 135 134 128 123 121 117 112 110 108 106 102 100 98 95 92 88 86 86 84 83 82 79 78 77 74 73 70 68 67 64 63 60 58 58 57 60 64 58
159 123 148 175 174 193 167 153 174 224 147 151 185 169 121 75 79 137 175 130 189 206 174 145 173 178 193 173 162 168 164 166 169 169 167 162 161 162 159 159 155 151 152 148 139 132 130 135 134 127 123 123 124 118 113 113 111 110 110 108 106 102 97 94 92 92 90 88 85 80 78 76 74 72 68 65 63 60 59 58 56 56 56 57 62 60
188 129 153 210 182 160 130 163 169 228 324 162 168 157 148 203 188 167 186 171 186 197 158 150 180 201 207 169 170 180 176 172 170 166 166 165 164 161 158 159 154 149 153 153 147 137 133 134 128 124 123 121 118 116 116 119 118 117 116 112 109 106 103 101 98 96 94 90 87 84 80 77 73 70 67 64 63 62 61 60 60 59 58 61 65 64
220 143 156 218 191 141 151 190 186 171 100 50 147 168 200 298 189 173 176 180 194 194 164 152 173 217 221 190 185 186 181 174 168 166 167 166 165 163 159 157 154 153 155 153 147 137 129 128 125 125 124 116 113 116 121 124 122 119 115 111 110 109 107 105 102 99 96 92 91 89 84 78 75 72 70 68 67 66 65 65 65 64 64 67 68 66
161 193 162 137 113 164 176 203 192 166 154 153 168 179 178 114 134 191 159 86 201 185 164 175 199 208 211 202 193 186 179 174 170 166 167 166 164 161 158 157 155 154 154 147 138 129 125 126 125 122 117 113 115 120 125 124 122 120 116 112 113 112 108 106 103 101 98 96 94 92 88 84 80 78 76 73 71 70 70 69 70 70 70 69 67 64
168 183 156 144 175 191 181 186 185 173 170 173 176 182 183 166 155 189 196 152 90 172 159 185 225 188 67 328 210 185 179 177 171 164 161 162 162 159 157 157 154 150 147 138 129 128 130 130 125 119 117 118 119 123 125 124 122 119 116 116 116 112 108 106 104 102 100 98 95 92 89 86 83 81 79 78 75 73 72 71 71 72 71 68 65 63
151 132 139 156 185 191 171 17 203 187 177 175 192 187 178 177 181 200 206 157 132 138 97 128 249 168 34 332 236 188 176 168 166 163 155 153 156 155 151 147 142 139 137 132 130 133 135 129 123 122 122 122 123 125 126 125 123 119 116 117 116 111 109 109 106 104 101 98 95 92 89 84 82 83 81 78 76 74 73 71 70 71 69 66 65 63
151 138 142 140 123 118 89 23 42 183 177 188 211 185 174 187 191 204 194 143 176 185 140 176 230 167 32 332 210 179 161 145 153 160 153 149 151 150 145 135 130 132 129 127 130 133 131 126 124 127 127 127 130 129 127 126 123 119 117 116 113 110 109 108 106 104 101 98 95 91 87 84 83 83 80 77 75 74 73 71 69 68 67 67 66 63
182 203 159 149 146 151 171 163 144 177 191 200 196 177 185 175 131 97 87 157 209 195 156 196 217 139 38 357 170 165 152 144 156 160 150 148 151 147 140 133 135 137 132 133 136 134 132 131 133 135 134 136 138 132 129 129 123 119 118 115 112 109 109 109 107 105 102 98 94 89 85 84 82 80 78 77 75 73 73 71 69 67 67 66 65 63
158 176 164 167 166 166 178 185 175 167 180 207 178 175 187 172 157 156 155 188 217 181 164 207 207 113 68 157 162 161 158 159 164 161 151 150 152 148 141 140 144 147 145 145 144 139 135 136 139 139 139 141 139 134 133 129 123 121 120 116 114 113 112 112 110 107 103 98 94 90 86 84 82 80 79 77 75 73 71 69 68 66 65 65 64 63
102 148 151 166 169 162 165 170 144 160 172 182 178 174 182 182 178 178 183 195 184 148 179 216 171 140 174 177 170 168 168 167 166 165 162 158 153 146 144 150 154 156 152 147 144 139 137 140 142 142 141 140 138 137 135 131 127 127 124 120 120 121 121 119 116 112 107 102 97 92 88 85 82 82 80 77 74 71 68 67 66 64 63 63 63 62
116 178 169 145 144 121 122 126 115 189 186 180 173 175 184 184 181 190 204 180 142 154 205 200 164 186 187 182 181 177 174 172 169 169 167 159 151 147 149 156 157 153 148 146 146 143 141 142 142 142 140 138 137 136 133 132 132 132 129 127 127 129 129 127 123 119 114 109 103 95 90 87 84 83 81 77 73 69 67 66 64 64 63 63 63 61
141 188 185 161 144 108 79 159 180 163 168 176 179 185 187 182 184 197 204 175 161 192 221 168 177 200 191 184 188 184 178 174 169 168 163 150 147 151 154 158 157 153 150 150 150 146 143 144 145 143 141 140 140 137 134 135 136 136 135 133 133 134 134 132 127 123 121 116 108 100 93 88 86 84 81 76 72 68 67 67 66 66 64 64 63 61
185 177 168 175 158 94 42 342 192 156 140 175 189 201 197 191 193 198 195 162 161 198 346 159 181 204 200 180 186 181 174 169 161 157 154 151 154 158 160 161 159 157 156 153 150 146 145 148 147 145 143 142 142 141 139 139 140 140 140 140 141 138 137 136 131 125 124 121 112 104 94 88 87 84 79 75 71 68 68 68 69 68 65 64 63 60
226 179 147 165 174 125 41 44 130 155 167 183 175 123 192 192 198 196 139 128 133 86 82 153 178 216 263 155 167 167 161 159 158 158 158 160 162 162 162 164 161 158 156 153 149 146 146 148 147 146 145 145 146 145 144 142 142 143 143 144 144 142 140 139 132 127 127 122 114 105 95 90 88 83 78 75 71 69 69 68 68 67 64 62 61 59
171 153 108 161 188 201 30 67 126 127 143 214 230 197 169 171 186 171 139 179 175 141 126 135 175 227 187 153 161 166 164 164 166 168 167 165 166 166 165 164 161 156 155 153 150 148 150 150 149 148 147 147 148 147 146 145 144 144 144 145 145 144 143 138 132 128 126 121 114 105 98 95 90 84 80 77 73 71 69 67 66 63 61 61 62 61
145 143 129 176 192 181 51 74 144 147 190 244 250 197 168 157 172 163 148 219 194 151 139 155 193 170 143 152 164 170 175 178 178 176 173 168 167 168 164 161 160 159 158 156 153 152 154 155 152 150 148 149 150 150 150 150 146 145 146 146 145 143 140 135 131 128 124 118 112 107 103 99 93 87 83 79 76 73 69 66 64 62 63 66 67 65
149 144 135 188 198 168 129 71 162 208 226 233 22 189 169 146 166 174 185 219 195 171 147 165 128 131 147 166 175 176 181 185 182 176 168 162 163 165 164 164 163 160 157 154 154 155 155 154 151 148 148 149 149 149 150 150 148 147 147 145 143 140 137 132 130 127 122 116 113 110 107 101 94 88 84 81 78 74 71 69 67 67 69 69 68 66
153 142 126 147 180 140 121 166 196 220 234 83 56 248 215 148 157 178 283 252 210 203 212 168 158 160 167 175 177 176 180 180 172 165 161 161 163 164 166 166 161 157 156 156 157 157 155 152 148 144 144 147 149 149 148 147 147 146 145 143 141 139 136 132 129 125 121 117 115 113 108 101 94 89 86 83 80 76 74 74 74 73 73 70 68 66
153 144 121 100 116 128 153 186 206 252 352 71 59 172 159 151 160 180 245 231 208 206 201 177 172 173 167 161 159 164 165 160 160 163 166 169 170 169 168 165 161 161 161 159 159 158 156 152 147 145 146 148 150 149 146 146 146 143 142 142 140 138 135 131 128 125 122 120 117 114 108 101 95 91 87 83 80 79 77 76 78 78 77 73 70 68
154 150 140 137 187 164 166 184 238 321 251 198 214 187 172 174 172 174 229 228 190 191 196 172 159 163 160 154 151 150 146 147 160 178 178 178 179 176 170 165 164 163 158 155 156 155 152 150 147 148 150 150 150 150 147 146 146 142 140 139 138 136 134 131 128 128 126 123 119 115 109 103 97 92 88 84 81 80 78 78 79 80 80 76 72 70
124 161 164 169 190 198 159 175 207 234 220 207 190 177 177 192 176 160 232 281 176 180 190 175 161 161 160 156 152 145 138 146 175 196 187 183 183 174 159 150 151 152 148 145 147 146 146 146 147 151 152 151 151 151 148 147 145 142 140 139 138 137 135 134 133 132 129 126 123 119 112 105 100 94 90 87 84 83 81 80 81 81 82 81 77 73
86 42 132 156 156 163 180 186 194 206 220 221 166 150 157 183 170 158 234 253 180 175 183 175 166 165 164 160 156 151 147 166 202 199 179 173 170 153 138 137 141 144 146 148 150 150 149 148 148 150 151 150 151 152 150 148 146 144 141 142 142 141 140 140 139 136 133 129 126 122 115 109 103 98 94 91 89 87 85 85 86 87 86 84 80 76
92 60 116 166 157 164 181 187 209 224 239 295 146 146 154 169 172 185 220 245 167 174 181 177 170 169 165 159 160 166 172 194 208 176 156 154 149 138 138 141 143 145 147 150 152 150 148 148 148 149 150 152 154 154 152 150 148 146 146 147 148 147 147 145 142 139 136 132 128 124 119 114 108 103 100 96 93 91 91 90 91 91 89 86 81 77
91 78 129 183 166 175 187 190 239 241 234 259 160 159 159 165 196 201 197 54 148 174 181 178 170 167 165 163 169 182 187 148 116 133 139 142 142 142 144 143 145 151 153 154 154 151 149 150 151 151 153 156 158 157 155 154 152 150 151 153 153 152 151 148 146 143 140 137 134 130 125 121 115 109 104 100 98 96 95 93 92 90 88 85 81 78
134 118 110 160 149 157 192 191 231 264 230 136 125 140 180 185 198 197 158 38 167 168 169 176 171 166 170 171 172 172 96 93 112 128 137 142 143 146 146 141 140 146 150 151 154 153 150 150 151 151 155 159 161 160 160 158 156 155 157 158 157 155 153 152 151 149 146 143 140 137 133 128 122 114 109 105 103 100 97 94 91 88 86 83 79 75
162 164 165 163 151 128 157 185 195 246 186 153 136 129 219 203 155 137 124 11 185 164 162 173 174 172 175 169 138 104 114 120 130 137 140 142 142 144 146 143 140 141 145 150 155 154 152 152 152 153 157 162 163 164 164 163 161 161 163 162 160 158 157 157 157 154 151 148 145 143 140 134 127 121 116 112 108 103 99 94 90 86 84 81 76 71
177 177 171 180 186 179 179 187 182 39 198 176 149 131 222 198 45 196 162 115 162 167 167 173 175 175 172 153 127 131 135 134 140 144 144 144 144 144 145 145 144 146 150 153 156 156 154 152 152 155 160 164 166 166 168 168 166 166 167 165 163 163 162 162 161 158 156 154 152 150 148 142 137 130 125 121 113 105 100 95 90 85 80 76 72 66
12 16 203 201 197 200 208 214 317 4 239 222 198 8 325 339 348 209 169 136 163 173 174 173 167 162 152 138 134 139 141 141 147 149 147 146 146 146 145 145 147 149 151 153 156 158 157 156 157 160 163 167 168 169 172 172 170 170 171 169 167 167 166 166 165 163 162 160 158 158 156 153 150 143 136 129 119 113 108 98 91 85 78 72 67 63
34 35 310 63 148 225 261 270 322 315 275 246 239 301 306 328 334 207 189 168 167 169 172 169 157 148 144 142 141 143 147 149 149 148 148 146 145 145 144 144 147 150 150 152 156 160 160 159 161 163 165 168 171 172 175 175 173 173 173 172 171 171 169 169 170 170 168 166 165 165 164 164 163 158 151 141 130 125 119 106 96 89 79 71 64 60
155 170 158 52 152 193 202 148 315 307 302 286 274 261 270 338 341 282 240 180 152 154 157 148 141 143 147 147 144 144 148 150 147 146 148 149 148 148 146 145 147 150 152 154 158 162 161 161 163 165 167 170 173 174 176 178 177 176 175 175 175 175 174 174 174 174 174 173 173 174 174 174 173 169 165 159 149 140 129 114 102 95 81 70 64 59
151 181 187 147 176 208 260 313 302 296 284 266 261 257 255 352 15 356 44 123 123 127 130 132 139 146 149 147 143 143 148 152 150 148 150 151 151 151 151 151 151 151 152 155 160 163 163 162 164 166 168 172 175 176 177 179 180 179 178 178 179 180 180 181 181 181 182 182 182 184 184 184 181 178 176 176 170 163 153 134 113 102 89 69 63 58
130 194 182 140 166 258 276 246 241 287 269 232 217 217 223 233 126 115 113 121 124 123 128 136 145 151 152 150 146 145 150 155 154 152 154 156 155 152 151 150 149 147 149 154 160 165 166 165 166 169 172 175 177 178 179 181 181 180 180 182 184 184 185 187 189 190 191 192 193 195 196 196 195 193 191 190 187 184 180 170 142 120 102 70 62 62
176 174 145 156 196 250 268 209 177 218 266 220 202 193 179 173 160 143 138 145 147 144 142 141 139 141 147 151 151 148 149 154 158 155 151 149 147 144 145 147 144 144 149 154 159 164 168 169 171 173 175 177 179 180 182 183 182 181 182 184 186 188 189 191 194 196 199 200 202 204 206 207 208 207 205 205 205 206 207 210 208 192 164 56 48 51
196 177 161 181 191 217 292 222 175 176 326 318 174 159 153 160 163 160 162 164 160 156 151 146 143 145 150 156 157 152 149 151 153 144 131 125 124 126 136 145 144 142 147 151 154 158 166 171 173 174 177 179 181 182 184 185 185 184 185 186 188 191 193 195 196 199 202 205 206 208 209 211 214 215 214 213 215 219 225 234 245 258 263 273 326 351